Location: Muenchen
(48.1800°N, 11.5800°E)
Time: 02:37:29
(UTC+01:00)

Tiros 1 - Visible Passes

Search period start: 22 January 2017 00:00
Search period end: 01 February 2017 00:00
Orbit: 630 x 665 km, 48.4° (Epoch: 21 January)

Date Brightness Start Highest point End Pass type
(mag) Time Alt. Az. Time Alt. Az. Time Alt. Az.
22 Jan 9.9 04:46:42 10° SSE 04:46:42 10° SSE 04:46:45 10° SSE visible
27 Jan 9.5 19:23:28 10° S 19:23:51 11° SSE 19:23:51 11° SSE visible
28 Jan 9.2 19:47:59 10° SSW 19:49:29 18° S 19:49:29 18° S visible
29 Jan 9.0 18:34:08 10° SSE 18:36:35 14° SE 18:37:21 14° SE visible
29 Jan 9.2 20:13:30 10° SW 20:15:03 20° SW 20:15:03 20° SW visible
30 Jan 8.2 18:58:29 10° SSW 19:02:23 27° SE 19:02:50 26° SE visible
30 Jan 9.6 20:39:29 10° WSW 20:40:32 17° WSW 20:40:32 17° WSW visible
31 Jan 9.2 17:44:49 10° SSE 17:47:00 13° SE 17:49:12 10° ESE visible
31 Jan 7.6 19:23:55 10° SW 19:28:16 46° SSE 19:28:16 46° SSE visible
31 Jan 10.2 21:05:43 10° W 21:05:57 11° W 21:05:57 11° W visible
